Hourly Data Report for October 08, 2015

All times are specified in Local Standard Time (LST). Add 1 hour to adjust for Daylight Saving Time where and when it is observed.

ARVIAT A
NUNAVUT

61°05'38.000" N
94°04'18.000" W
10.40 m
2300427
71174
YEK

Related Data

No related data is available for this station

Download Data

Hourly Data (October 2015)
Hourly Data Report for October 8, 2015
Temp Definition
°C
Dew Point Temp Definition
°C
Rel Hum Definition
%
Wind Dir Definition
10's deg

Wind Spd Definition
km/h
Visibility Definition
km
Stn Press Definition
kPa
Hmdx Definition


Wind Chill Definition


Weather Definition


TIME
00:00 Legend Double Dagger 2.0 1.9 99 26 17 16.1 100.38     LegendNANA
01:00 Legend Double Dagger 1.3 1.0 98 28 21 16.1 100.35     LegendNANA
02:00 Legend Double Dagger 0.6 0.6 100 29 17 2.0 100.31     Fog
03:00 Legend Double Dagger 0.0 0.0 100 27 13 0.8 100.28   -4 Fog
04:00 Legend Double Dagger 0.2 0.2 100 27 8 0.6 100.24     Fog
05:00 Legend Double Dagger 0.1 0.1 100 23 9 4.0 100.20     Freezing Rain,Snow
06:00 Legend Double Dagger 0.9 0.9 100 33 39 11.3 100.23     LegendNANA
07:00 Legend Double Dagger -1.2 -1.8 96 35 61 4.0 100.40   -10 Snow
08:00 Legend Double Dagger -2.0 -2.5 96 35 52 6.4 100.64   -11 Freezing Rain,Snow
09:00 Legend Double Dagger -2.4 -3.4 93 35 46 16.1 100.82   -11 Snow
10:00 Legend Double Dagger -2.5 -4.1 89 35 50 16.1 100.95   -12 LegendNANA
11:00 Legend Double Dagger -2.3 -4.7 84 35 48 16.1 101.08   -11 LegendNANA
12:00 Legend Double Dagger -2.3 -4.5 85 34 45 16.1 101.18   -11 LegendNANA
13:00 Legend Double Dagger -2.3 -5.6 78 34 45 16.1 101.25   -11 LegendNANA
14:00 Legend Double Dagger -2.1 -5.5 77 33 37 16.1 101.31   -10 LegendNANA
15:00 Legend Double Dagger -1.5 -4.8 79 32 32 16.1 101.36   -9 LegendNANA
16:00 Legend Double Dagger -1.4 -5.8 72 32 37 16.1 101.39   -9 LegendNANA
17:00 Legend Double Dagger -1.6 -5.1 77 30 30 16.1 101.42   -9 LegendNANA
18:00 Legend Double Dagger -2.3 -4.1 87 32 28 16.1 101.43   -9 Snow
19:00 Legend Double Dagger -2.5 -5.1 82 32 32 16.1 101.46   -10 LegendNANA
20:00 Legend Double Dagger -3.1 -5.9 81 32 28 16.1 101.50   -10 LegendNANA
21:00 Legend Double Dagger -3.4 -5.9 83 31 24 16.1 101.47   -10 LegendNANA
22:00 Legend Double Dagger -3.7 -6.9 79 31 34 16.1 101.48   -12 LegendNANA
23:00 Legend Double Dagger -4.0 -7.2 79 31 32 16.1 101.49   -12 LegendNANA

Notes on Data Quality.

Legend

  • E = Estimated
  • M = Missing
  • NA = Not Available
  • ‡ = Partner data that is not subject to review by the National Climate Archives
Date modified: